CW0003 Weather Reports


Display with metric or nautical units.
time (UTC)temp
F
wind
direction
speed
MPH
gust
MPH
rain 1hr
in
rain 24hr
in
rain mn
in
humidity
%
barometer
mb
20210624001518 63 0.0 0.0 0.00 0.07 0.00 73 1022.1
20210624000006 64 0.0 0.0 0.00 0.07 0.00 71 1021.9
20210623234659 66 0.0 0.0 0.00 0.08 0.00 71 1021.6
20210623233150 67 173 0.0 0.0 0.00 0.08 0.00 70 1021.6
20210623231635 68 178 0.0 3.0 0.00 0.08 0.00 66 1021.5
20210623230143 69 241 0.0 4.0 0.00 0.08 0.00 60 1021.5
20210623224619 70 229 1.0 6.0 0.00 0.15 0.00 56 1021.2
20210623223106 71 182 0.0 4.0 0.00 0.15 0.00 56 1020.8
20210623221628 71 241 2.0 6.0 0.00 0.15 0.00 55 1020.6
20210623220046 72 221 1.0 4.0 0.00 0.15 0.00 56 1020.3
20210623214535 72 217 1.0 7.0 0.00 0.17 0.00 52 1020.4
20210623213116 72 192 1.0 4.0 0.00 0.17 0.00 50 1020.3
20210623211545 72 209 1.0 7.0 0.00 0.17 0.00 56 1020.0
20210623210034 73 264 2.0 7.0 0.00 0.17 0.00 62 1019.9
20210623204502 74 191 1.0 8.0 0.00 0.34 0.00 54 1019.8
20210623203152 74 223 2.0 8.0 0.00 0.34 0.00 63 1019.8
20210623201619 74 9 2.0 7.0 0.00 0.34 0.00 61 1019.7
20210623200114 75 263 2.0 6.0 0.00 0.34 0.00 55 1019.7
20210623194650 74 137 0.0 6.0 0.00 0.40 0.00 49 1019.5
20210623193221 75 174 1.0 5.0 0.00 0.40 0.00 62 1019.4
20210623191616 73 248 1.0 4.0 0.00 0.40 0.00 66 1019.5
20210623190051 73 212 2.0 7.0 0.00 0.40 0.00 56 1019.4
20210623184534 72 212 0.0 7.0 0.00 0.40 0.00 55 1019.2
20210623183053 72 238 2.0 7.0 0.00 0.40 0.00 48 1019.2
20210623181526 72 249 1.0 8.0 0.00 0.40 0.00 72 1019.0
20210623180048 69 14 2.0 7.0 0.00 0.40 0.00 65 1018.9
20210623174538 69 242 1.0 9.0 0.00 0.40 0.00 69 1019.0
20210623173022 70 219 0.0 6.0 0.00 0.40 0.00 62 1019.0
20210623171512 73 216 4.0 7.0 0.00 0.40 0.00 61 1019.1
20210623170002 71 16 1.0 8.0 0.00 0.40 0.00 68 1018.8
20210623164641 70 213 3.0 8.0 0.00 0.40 0.00 63 1018.7
20210623163123 69 208 3.0 9.0 0.00 0.40 0.00 51 1018.7
20210623161740 70 225 2.0 9.0 0.00 0.40 0.00 67 1018.7
20210623160144 70 248 2.0 8.0 0.00 0.40 0.00 64 1018.7
20210623154551 68 205 2.0 8.0 0.00 0.40 0.00 58 1018.7
20210623153116 70 219 6.0 12.0 0.00 0.40 0.00 60 1018.1
20210623151618 71 233 4.0 10.0 0.00 0.40 0.00 68 1018.3
20210623150116 69 259 1.0 8.0 0.00 0.40 0.00 60 1018.2
20210623144522 67 220 2.0 12.0 0.00 0.40 0.00 59 1018.3
20210623143052 68 229 0.0 9.0 0.00 0.40 0.00 59 1018.2
20210623141552 67 244 3.0 9.0 0.00 0.40 0.00 57 1018.0
20210623140018 67 39 3.0 10.0 0.00 0.40 0.00 62 1017.8
20210623134515 67 28 6.0 14.0 0.00 0.40 0.00 73 1017.7
20210623133158 65 242 1.0 8.0 0.00 0.40 0.00 62 1017.6
20210623131717 64 244 4.0 14.0 0.00 0.40 0.00 74 1017.4
20210623130201 63 228 4.0 10.0 0.00 0.40 0.00 70 1017.1
20210623124620 62 23 3.0 9.0 0.00 0.40 0.00 77 1017.0
20210623123053 61 222 2.0 8.0 0.00 0.40 0.00 79 1017.1
20210623121557 60 130 2.0 10.0 0.00 0.40 0.00 78 1017.1
20210623120024 59 219 2.0 9.0 0.00 0.40 0.00 84 1016.9
20210623114540 58 217 0.0 5.0 0.00 0.40 0.00 92 1016.9
20210623113023 56 215 1.0 4.0 0.00 0.40 0.00 93 1016.7
20210623111554 54 223 0.0 5.0 0.00 0.40 0.00 95 1016.4
20210623110014 53 254 5.0 6.0 0.00 0.40 0.00 95 1016.2
20210623104618 52 0.0 0.0 0.00 0.40 0.00 94 1016.1
20210623103137 51 0.0 0.0 0.00 0.40 0.00 94 1015.7
20210623101628 51 0.0 0.0 0.00 0.40 0.00 94 1015.4
20210623100111 51 0.0 0.0 0.00 0.40 0.00 94 1015.2
20210623094548 51 0.0 0.0 0.00 0.40 0.00 93 1015.0
20210623093134 51 0.0 0.0 0.00 0.40 0.00 93 1014.8
20210623091611 51 0.0 0.0 0.00 0.40 0.00 93 1014.5
20210623090033 52 0.0 0.0 0.00 0.40 0.00 93 1014.0
20210623084534 52 0.0 0.0 0.00 0.40 0.00 93 1013.5
20210623083426 52 0.0 0.0 0.00 0.40 0.00 92 1013.1
20210623081659 52 0.0 0.0 0.00 0.40 0.00 92 1013.2
20210623080121 53 0.0 0.0 0.00 0.40 0.00 92 1013.0
20210623074639 53 0.0 0.0 0.00 0.40 0.00 92 1012.3
20210623073102 53 0.0 0.0 0.00 0.40 0.00 92 1012.1
20210623071536 54 0.0 0.0 0.00 0.40 0.00 92 1011.6
20210623070035 54 0.0 0.0 0.00 0.40 0.00 91 1011.4
20210623064517 54 0.0 0.0 0.00 0.40 0.00 92 1011.3
20210623063007 55 0.0 0.0 0.00 0.40 0.00 92 1011.2
20210623061900 55 0.0 0.0 0.00 0.40 0.00 92 1010.9
20210623060138 56 0.0 0.0 0.00 0.40 0.00 92 1010.8
20210623054643 56 0.0 0.0 0.00 0.40 0.00 91 1010.4
20210623053141 57 0.0 0.0 0.00 0.40 0.00 91 1010.4
20210623051601 57 0.0 0.0 0.00 0.40 0.00 92 1010.4
20210623050046 58 0.0 0.0 0.00 0.40 0.00 92 1010.2
20210623044547 58 0.0 0.0 0.00 0.40 0.00 92 1010.0
20210623043036 59 0.0 0.0 0.00 0.40 0.00 93 1009.9
20210623041503 59 0.0 0.0 0.00 0.40 0.00 93 1009.7
20210623040149 60 0.0 0.0 0.00 0.40 0.00 93 1009.3
20210623034655 60 0.0 0.0 0.00 0.40 0.40 93 1009.1
20210623033106 60 0.0 0.0 0.00 0.40 0.40 93 1008.8
20210623031544 60 0.0 0.0 0.01 0.40 0.40 92 1008.6
20210623030035 61 0.0 0.0 0.01 0.40 0.40 92 1008.2
20210623024532 61 0.0 0.0 0.01 0.40 0.40 92 1008.1
20210623023019 62 0.0 0.0 0.01 0.40 0.40 91 1007.9
20210623021511 62 0.0 0.0 0.00 0.39 0.39 91 1007.5
20210623020013 63 0.0 0.0 0.01 0.39 0.39 93 1007.4
20210623014951 64 0.0 0.0 0.02 0.39 0.39 94 1007.1
20210623013155 64 0.0 0.0 0.03 0.39 0.39 94 1006.5
20210623011613 64 0.0 0.0 0.04 0.39 0.39 94 1006.0
20210623010147 64 0.0 0.0 0.05 0.38 0.38 94 1005.1
20210623004605 64 0.0 0.0 0.04 0.37 0.37 93 1005.0
20210623003032 64 0.0 0.0 0.04 0.36 0.36 93 1004.6